OAO 2 (3597 NORAD) Tracking and Keplerian Element Data

This shows tracking and keplerian element data for the satellite.

Feedback or suggestion? Click here.




ElementValue
Catalog3597
NameOAO 2
Epoch Orbit755
Epoch Day354.03187155
Epoch Year2025
RAAN349.9514
Inclination34.9949
Eccentricity0.0006096
Argument of Perigee277.2107
Mean Anonmoly82.7891
Mean Motion14.47248417
Decay Rate1.83E-06
L11 03597U 68110A 25354.03187155 .00000183 00000+0 54480-4 0 9995
L22 03597 34.9949 349.9514 0006096 277.2107 82.7891 14.47248417 7550



Live tracking and technical data element details for OAO 2 (NORAD 3597). OAO 2 can be tracked NOW for your location showing map with azimuth and elevation plus other details from your city location.







IsCatalogInMostPopularTable: catalog: 3597, numindb: 427
Update: records affected: 1



GetName: 3597 OAO 2

Hit Count: updated at: Thu, 16 Apr 2026 05:43:44 GMT